Regional Weather Roundup
Issued by NWS Upton, NY

Current Version | Previous Version | Graphics & Text | Print | Product List | Glossary Off
Versions: 1 2 3 4 5 6 7 8 9 10 11 12 13 14 15 16 17 18 19 20 21 22 23 24 25 26 27 28 29 30 31 32 33 34 35 36 37 38 39 40 41 42 43 44 45 46 47 48 49 50

000
ASUS41 KOKX 231605
RWROKX

REGIONAL WEATHER ROUNDUP
NATIONAL WEATHER SERVICE NEW YORK NY
1200 PM EDT TUE SEP 23 2014

NOTE: "FAIR" INDICATES FEW OR NO CLOUDS BELOW 12,000 FEET WITH NO
SIGNIFICANT WEATHER AND/OR OBSTRUCTIONS TO VISIBILITY.

NYZ071-072-176-178-NJZ106-104-231700-
NEW YORK CITY METRO AREA


CITY           SKY/WX    TMP DP  RH WIND       PRES   REMARKS
CENTRAL PARK   SUNNY     64  40  41 W6        30.36S
LAGUARDIA APRT MOSUNNY   64  41  42 NW3       30.33S
KENNEDY INTL   MOSUNNY   65  41  41 W6        30.34S
NEWARK/LIBERTY MOSUNNY   64  41  42 CALM      30.33S
BRNX BOT. GARD   N/A     63  41  45 W2        30.34S
TETERBORO      SUNNY     65  40  39 S5        30.32F
$$

NYZ177-179-078>081-231700-
LONG ISLAND NEW YORK

CITY           SKY/WX    TMP DP  RH WIND       PRES   REMARKS
FARMINGDALE    SUNNY     64  43  46 VRB6      30.33S
ISLIP          MOSUNNY   63  44  50 VRB7G18   30.31S
SHIRLEY        SUNNY     64  44  48 N7        30.33R
WESTHAMPTON    SUNNY     65  42  43 VRB7      30.33R
MONTAUK POINT    N/A     62  41  46 N3        30.33R
$$

NYZ052-065-067-231700-
HUDSON VALLEY

CITY           SKY/WX    TMP DP  RH WIND       PRES   REMARKS
WHITE PLAINS   SUNNY     63  42  46 NW8       30.32S
NEWBURGH       SUNNY     61  46  59 SW7       30.33S
MONTGOMERY     SUNNY     64  43  46 CALM      30.31S
POUGHKEEPSIE   SUNNY     63  41  44 MISG      30.31S
ALBANY         MOSUNNY   63  46  54 W10       30.31S
$$

NJZ001-105-106-008-010-013-015-019>022-104-231700-
NEW JERSEY

CITY           SKY/WX    TMP DP  RH WIND       PRES   REMARKS
NEWARK/LIBERTY MOSUNNY   64  41  42 CALM      30.33S
TETERBORO      SUNNY     65  40  39 S5        30.32F
CALDWELL       SUNNY     62  40  44 VRB3      30.34S
MORRISTOWN     SUNNY     64  39  39 CALM      30.34S
SOMERVILLE     SUNNY     63  42  46 CALM      30.32F
LINDEN         FAIR      69  43  39 CALM      30.35S
SUSSEX         SUNNY     65  44  46 W6        30.32F
ANDOVER          N/A     64  43  46 CALM      30.33F
TRENTON        SUNNY     63  42  46 SE5       30.33F
MILLVILLE      MOSUNNY   62  44  51 E7        30.34S
ATLANTIC CITY  MOSUNNY   62  47  57 E7        30.34R
WRIGHTSTOWN    SUNNY     64  46  52 VRB6      30.32S
TOMS RIVER     SUNNY     64  46  52 NE3       30.34S
BELMAR         SUNNY     63  45  51 E5        30.34S
$$

PAZ047>061-062-071-231700-
EASTERN PENNSYLVANIA

CITY           SKY/WX    TMP DP  RH WIND       PRES   REMARKS
PHILADELPHIA   PTSUNNY   65  41  41 VRB5      30.35R
ALLENTOWN      SUNNY     63  43  48 VRB3      30.34F
SCRANTON       SUNNY     59  42  53 CALM      30.34F
$$

CTZ002-004>006-009-010-012-RIZ004-006-007-MAZ004-011-015-231700-
SOUTHERN NEW ENGLAND
 IN CT

CITY           SKY/WX    TMP DP  RH WIND       PRES   REMARKS
BRADLEY INTL   MOSUNNY   64  41  42 CALM      30.29S
HARTFORD       SUNNY     63  44  50 MISG      30.30S
DANBURY        SUNNY     61  43  51 VRB6      30.32F
WTRBRY/OXFORD  MOSUNNY   61  45  55 CALM      30.31S
BRIDGEPORT     SUNNY     66  46  48 VRB6      30.31S
MERIDEN        SUNNY     64  42  44 VRB3      30.30S
NEW HAVEN      MOSUNNY   63  44  50 W6        30.31F
CHESTER        FAIR      61  41  48 NE5       30.31S
GROTON         SUNNY     60  42  51 S8        30.31R
WILLIMANTIC    SUNNY     61  41  47 CALM      30.30S

 IN RI

CITY           SKY/WX    TMP DP  RH WIND       PRES   REMARKS
PROVIDENCE     MOSUNNY   63  39  41 VRB5      30.29F
BLOCK ISLAND   SUNNY     61  39  44 CALM      30.32R
WESTERLY       SUNNY     61  40  45 SW9       30.31S

 IN MA

CITY           SKY/WX    TMP DP  RH WIND       PRES   REMARKS
BOSTON         MOSUNNY   63  40  42 W6        30.27F
WORCESTER      SUNNY     58  41  53 W8        30.29R
WESTFIELD      SUNNY     64  42  44 VRB3      30.29S
PROVINCETOWN   SUNNY     59  39  47 NW7       30.29S
NANTUCKET      SUNNY     62  40  44 NW12      30.29R
$$

ANZ330-335-338-340-345-350-353-355-231700-
COASTAL MARINE OBSERVATIONS


STATION/POSITION TIME  SKY/WX   TEMP    WIND        PRES    VSBY  WAVE
                                AIR SEA DIR/SP/G                  HT/PER
                 (UTC)          (F)     (DEG/KT/KT) (MB)    (MI)  (FT/S)
NY HARB ENTRANCE 1600            58 69  350/  2/  6 1027.9          2/ 8
4S FIRE IS       1600               69                N/A           2/ 8
20S FIRE ISLAND  1600            59 68   20/ 10/ 14 1027.1          2/ 9
23SW MTP         1600                                 N/A           3/ 8
HUDSON CANYON    1600            61 70   30/ 10/ 12 1026.2          4/ 5
EXECUTION ROCKS  1600            60 70  200/  6/  8   N/A
WESTERN LI SOUND 1600            59     200/  6/  8   N/A           0
CENTRAL LI SOUND 1500            58 69  310/  2/  6   N/A           1/ 3
EASTERN LI SOUND 1500            63 68  270/  2/  6   N/A
ROBBINS REEF     1600            60      60/  2/  3 1026.2
$$


>>>>>>>>>>>>>>>>>>>>>>>>>>>> KEY <<<<<<<<<<<<<<<<<<<<<<<<<<<
>                                                          <
>     SKY/WX - SKY CONDITION/PRESENT WEATHER               <
>     TMP    - TEMPERATURE IN FAHRENHEIT                   <
>     DP     - DEWPOINT IN FAHRENHEIT                      <
>     RH     - RELATIVE HUMIDITY IN PERCENT                <
>     WIND   - DIRECTION AND SPEED IN MPH                  <
>     PRES   - MEAN SEA LEVEL PRESSURE IN INCHES OF HG     <
>     WCI    - WIND CHILL INDEX                            <
>     VSB    - VISIBILITY IN MILES                         <
>     HX     - HEAT INDEX                                  <
>     TC     - TEMPERATURE IN CELSIUS                      <
>     VRB    - VARIABLE WIND DIRECTION                     <
>                                                          <
>>>>>>>>>>>>>>>>>>>>>>>>>>>> KEY <<<<<<<<<<<<<<<<<<<<<<<<<<<





USA.gov is the U.S. government's official web portal to all federal, state and local government web resources and services.